ISS DEB (44303 NORAD) Tracking and Keplerian Element Data

This shows tracking and keplerian element data for the satellite.

Feedback or suggestion? Click here.




ElementValue
Catalog44303
NameISS DEB
Epoch Orbit803
Epoch Day201.5914515
Epoch Year2019
RAAN195.3667
Inclination51.6409
Eccentricity0.0006062
Argument of Perigee167.7577
Mean Anonmoly192.3561
Mean Motion15.51734302
Decay Rate1.633E-05
L11 44303U 98067QA 19201.59145150 .00001633 00000-0 34589-4 0 9993
L22 44303 51.6409 195.3667 0006062 167.7577 192.3561 15.51734302 8031

Live tracking and technical data element details for ISS DEB (NORAD 44303). ISS DEB can be tracked NOW for your location showing map with azimuth and elevation plus other details from your city location.

Track the satellite on the map from your city or location and see movement details for azimuth, elevation, latitude, longitude, range, height, and movement on the map or in text.







IsCatalogInMostPopularTable: catalog: 44303, numindb: 19
Update: records affected: 1



GetName: 44303 ISS DEB

Hit Count: updated at: Sun, 21 Jul 2019 21:42:40 GMT